Starlink 6090

operational
NORAD ID: 56095 Int'l Des: 2023-046 Owner: SPXS Country: US Constellation: starlink
LEOCIRCULAR

关于 Starlink 6090

正在加载描述...

实时位置

正在加载3D地球...

即将过境

高度历史

Altitude vs Time

uPlot chart will show altitude changes over time

两行轨道根数

1 56095U 23046C 25351.09368349 .00000168 00000-0 27471-4 0 9998
2 56095 43.0026 248.0808 0001148 270.2800 89.7910 15.02540394149635
Epoch: Dec 17, 2025 • Age: 12 hours

当前状态

高度 562.7 km
速度 7.59 km/s
星下点 41.70°N, 59.04°E
发射日期 Mar 29, 2023
运行时间 2.7 years
类型 internet

技术详情

分类 Payload
质量 305.00 kg
干质量 290.00 kg
总质量 305.00 kg
长度 0.20 m
直径 2.80 m
跨度 9.00 m
形状 Box + pan
制造商 SPXS
平台类型 Starlink
阶段状态 In Orbit
所有者/国家 SPXS/US

大型星座

Loading constellations...